Location: Abyssinia Baptist Church
(32.7840°N, 96.7578°W)
Time: 07:42:22
(UTC+00:00)

H-2A R/B - Pass Details

Date: 29 June 2022
Orbit: 577 x 651 km, 98.5° (Epoch: 07 August)

Event Time Altitude Azimuth Distance (km) Brightness Sun altitude
Rises 03:45:03 0° 350° (N) 2,922 6.5 -21.5°
Reaches altitude 10° 03:47:59 10° 329° (NNW) 2,024 5.8 -21.9°
Maximum altitude 03:50:36 16° 292° (WNW) 1,685 5.0 -22.2°
Drops below altitude 10° 03:53:14 10° 256° (WSW) 2,038 5.0 -22.6°
Sets 03:56:13 0° 234° (SW) 2,952 5.6 -23.0°
